Reno, NV

2:26 PM PDT on April 25, 2018 (GMT -0700)
Reno-Tahoe International

Weather History for KRNO - July, 2013

Change the Weather History Date:

Saturday, July 20, 2013

  Actual Average Record
Temperature  
Mean Temperature 86 °F 76 °F  
Max Temperature 105 °F 93 °F 106 °F (1931)
Min Temperature 67 °F 59 °F 37 °F (1983)
Degree Days  
Heating Degree Days 0 0  
Month to date heating degree days 0 0  
Since 1 June heating degree days 16 56  
Since 1 July heating degree days 0 0  
Cooling Degree Days 21 11  
Month to date cooling degree days 306 193  
Year to date cooling degree days 569 366  
Since 1 June cooling degree days 533 329  
Growing Degree Days 36 (Base 50)    
Moisture  
Dew Point 38 °F    
Average Humidity 23    
Maximum Humidity 39    
Minimum Humidity 7    
Precipitation  
Precipitation 0.00 in 0.00 in 0.41 in (1956)
Month to date precipitation 0.21 0.10  
Year to date precipitation 1.68 4.38  
Snow  
Snow 0.00 in 0.00 in 0.00 in ()
Month to date snowfall 0.0 0.0  
Since 1 June snowfall 0.0 T  
Since 1 July snowfall 0.0 0.0  
Snow Depth 0.00 in    
Sea Level Pressure  
Sea Level Pressure 29.78 in    
Wind  
Wind Speed 4 mph (WNW)    
Max Wind Speed 43 mph    
Max Gust Speed 60 mph    
Visibility 10 miles    
Events      
T = Trace of Precipitation, MM = Missing Value Source: NWS Daily Summary

Daily Weather History Graph

Daily Weather History Graph

Search for Another Location

Airport or City:

Astronomy

Jul. 20, 2013 Rise Set
Actual Time 5:48 AM PDT 8:21 PM PDT
Civil Twilight 5:17 AM PDT 8:52 PM PDT
Nautical Twilight 4:38 AM PDT 9:31 PM PDT
Astronomical Twilight 3:55 AM PDT 10:14 PM PDT
Moon 6:30 PM PDT (7/20) 3:33 AM PDT (7/20)
Length of Visible Light 15h 35m
Length of Day
14h 33m
Waxing Gibbous, 94% of the Moon is Illuminated
Jul 20
Waxing Gibbous
Jul 22
Full
Jul 29
Last Quarter
Aug 6
New
Aug 14
First Quarter

Hourly Weather History & Observations

Time (PDT) Temp. Dew Point Humidity Pressure Visibility Wind Dir Wind Speed Gust Speed Precip Events Conditions
12:55 AM 80.1 °F 39.9 °F 24% 29.82 in 10.0 mi Calm Calm - N/A   Clear
1:55 AM 79.0 °F 39.0 °F 24% 29.81 in 10.0 mi WSW 4.6 mph - N/A   Partly Cloudy
2:55 AM 73.0 °F 41.0 °F 31% 29.82 in 10.0 mi Calm Calm - N/A   Scattered Clouds
3:55 AM 73.9 °F 39.9 °F 29% 29.81 in 10.0 mi WNW 3.5 mph - N/A   Partly Cloudy
4:55 AM 68.0 °F 42.1 °F 39% 29.83 in 10.0 mi SSE 3.5 mph - N/A   Partly Cloudy
5:55 AM 68.0 °F 42.1 °F 39% 29.84 in 10.0 mi Calm Calm - N/A   Scattered Clouds
6:55 AM 71.1 °F 42.1 °F 35% 29.84 in 10.0 mi Calm Calm - N/A   Scattered Clouds
7:55 AM 73.9 °F 42.1 °F 32% 29.86 in 10.0 mi Calm Calm - N/A   Scattered Clouds
8:55 AM 79.0 °F 41.0 °F 26% 29.86 in 10.0 mi Calm Calm - N/A   Partly Cloudy
9:55 AM 84.0 °F 39.9 °F 21% 29.83 in 10.0 mi SSE 3.5 mph - N/A   Partly Cloudy
10:55 AM 89.1 °F 39.9 °F 18% 29.82 in 10.0 mi Calm Calm - N/A   Clear
11:55 AM 91.9 °F 37.9 °F 15% 29.80 in 10.0 mi Calm Calm - N/A   Partly Cloudy
12:55 PM 96.1 °F 32.0 °F 10% 29.78 in 10.0 mi Variable 3.5 mph - N/A   Partly Cloudy
1:55 PM 102.0 °F 28.9 °F 8% 29.74 in 10.0 mi NNE 6.9 mph - N/A   Partly Cloudy
2:55 PM 102.0 °F 30.0 °F 8% 29.73 in 10.0 mi Calm Calm - N/A   Scattered Clouds
3:55 PM 102.9 °F 32.0 °F 8% 29.70 in 10.0 mi Variable 5.8 mph - N/A   Scattered Clouds
4:55 PM 100.0 °F 34.0 °F 10% 29.72 in 10.0 mi West 13.8 mph - N/A   Mostly Cloudy
5:27 PM 96.8 °F 28.4 °F 9% 29.91 in 9.0 mi North 13.8 mph 59.8 mph N/A   Squalls
5:55 PM 99.0 °F 30.0 °F 9% 29.71 in 10.0 mi WNW 15.0 mph - N/A   Mostly Cloudy
6:55 PM 100.0 °F 28.0 °F 8% 29.70 in 10.0 mi WSW 8.1 mph - N/A   Mostly Cloudy
7:55 PM 96.1 °F 37.0 °F 13% 29.72 in 10.0 mi NNW 9.2 mph - N/A   Scattered Clouds
8:55 PM 91.0 °F 39.9 °F 17% 29.73 in 10.0 mi NW 6.9 mph - N/A   Scattered Clouds
9:55 PM 89.1 °F 42.1 °F 19% 29.74 in 10.0 mi WNW 3.5 mph - N/A   Clear
10:55 PM 87.1 °F 44.1 °F 22% 29.74 in 10.0 mi NW 6.9 mph - N/A   Clear
11:55 PM 86.0 °F 46.9 °F 26% 29.75 in 10.0 mi North 11.5 mph - N/A   Clear